Total_Precipitation_Accumulation
0.00 0.00 0.00 0.00 0.00 0.00 0.00 0.00 0.00 0.00 0.00 0.00 0.00 0.01 0.03 0.05 0.07 0.09 0.08 0.10 0.14 0.15 0.18 0.22 0.23 0.26 0.29 0.26 0.29 0.32 0.33 0.40 0.38 0.10 0.03 0.05 0.15 0.21 0.20 0.15 0.15 0.16 0.15
0.00 0.00 0.00 0.00 0.00 0.00 0.00 0.00 0.00 0.00 0.00 0.00 0.01 0.03 0.06 0.10 0.11 0.13 0.13 0.13 0.16 0.18 0.20 0.24 0.26 0.25 0.26 0.24 0.27 0.28 0.25 0.24 0.30 0.18 0.05 0.05 0.10 0.18 0.27 0.27 0.21 0.19 0.18
0.00 0.00 0.00 0.00 0.00 0.00 0.00 0.00 0.00 0.00 0.00 0.00 0.01 0.05 0.13 0.20 0.19 0.15 0.19 0.20 0.19 0.21 0.23 0.26 0.26 0.26 0.25 0.22 0.27 0.27 0.22 0.19 0.24 0.25 0.12 0.06 0.10 0.13 0.24 0.34 0.30 0.26 0.23
0.00 0.00 0.00 0.00 0.00 0.00 0.00 0.00 0.00 0.00 0.01 0.01 0.01 0.03 0.14 0.33 0.36 0.27 0.32 0.30 0.24 0.20 0.17 0.17 0.24 0.34 0.33 0.31 0.34 0.28 0.24 0.26 0.28 0.30 0.20 0.12 0.13 0.15 0.24 0.36 0.40 0.38 0.32
0.00 0.00 0.00 0.00 0.00 0.00 0.00 0.00 0.00 0.01 0.01 0.01 0.01 0.02 0.08 0.42 0.79 0.74 0.67 0.49 0.28 0.17 0.11 0.10 0.19 0.32 0.36 0.49 0.59 0.49 0.45 0.49 0.43 0.40 0.34 0.27 0.24 0.27 0.31 0.33 0.46 0.49 0.43
0.00 0.00 0.00 0.00 0.00 0.00 0.00 0.00 0.01 0.01 0.01 0.02 0.02 0.02 0.04 0.30 0.83 0.91 0.67 0.36 0.22 0.16 0.11 0.08 0.11 0.22 0.25 0.30 0.42 0.49 0.54 0.63 0.62 0.57 0.52 0.44 0.36 0.34 0.34 0.39 0.44 0.53 0.55
0.00 0.00 0.00 0.00 0.00 0.00 0.00 0.01 0.01 0.01 0.02 0.02 0.02 0.02 0.02 0.16 0.66 0.77 0.47 0.25 0.16 0.12 0.09 0.07 0.08 0.16 0.22 0.29 0.33 0.34 0.37 0.46 0.60 0.64 0.64 0.48 0.40 0.35 0.39 0.45 0.44 0.49 0.55
0.00 0.00 0.00 0.00 0.00 0.00 0.00 0.01 0.01 0.02 0.02 0.02 0.02 0.02 0.01 0.08 0.51 0.64 0.36 0.19 0.12 0.09 0.05 0.06 0.06 0.11 0.23 0.41 0.42 0.37 0.33 0.38 0.54 0.65 0.80 0.71 0.55 0.51 0.63 0.72 0.70 0.57 0.47
0.00 0.00 0.00 0.00 0.00 0.00 0.01 0.01 0.02 0.03 0.02 0.02 0.02 0.01 0.01 0.02 0.30 0.53 0.34 0.17 0.10 0.07 0.03 0.04 0.06 0.10 0.21 0.38 0.39 0.29 0.21 0.23 0.30 0.45 0.59 0.66 0.63 0.64 0.75 0.90 0.89 0.70 0.58
0.00 0.00 0.00 0.00 0.00 0.01 0.01 0.02 0.02 0.02 0.02 0.02 0.02 0.01 0.01 0.01 0.14 0.38 0.38 0.21 0.10 0.06 0.05 0.03 0.06 0.15 0.23 0.31 0.30 0.25 0.30 0.29 0.25 0.23 0.26 0.34 0.41 0.46 0.60 0.83 1.01 0.89 0.71
0.00 0.00 0.00 0.00 0.00 0.01 0.02 0.02 0.02 0.03 0.03 0.02 0.01 0.01 0.01 0.01 0.05 0.20 0.36 0.28 0.16 0.09 0.07 0.05 0.05 0.15 0.21 0.22 0.23 0.25 0.42 0.37 0.22 0.20 0.20 0.24 0.29 0.38 0.52 0.69 0.91 1.05 0.90
0.00 0.00 0.00 0.00 0.01 0.02 0.03 0.03 0.03 0.03 0.03 0.03 0.02 0.02 0.01 0.01 0.05 0.15 0.24 0.23 0.19 0.10 0.08 0.05 0.06 0.11 0.12 0.14 0.17 0.25 0.25 0.20 0.18 0.18 0.17 0.20 0.27 0.36 0.47 0.62 0.83 0.99 1.01
0.00 0.00 0.00 0.01 0.01 0.03 0.03 0.04 0.04 0.04 0.06 0.04 0.03 0.02 0.01 0.01 0.07 0.16 0.13 0.11 0.16 0.13 0.08 0.07 0.07 0.08 0.07 0.07 0.11 0.16 0.17 0.19 0.24 0.22 0.19 0.22 0.28 0.38 0.42 0.46 0.60 0.84 0.98
0.00 0.00 0.01 0.01 0.02 0.03 0.04 0.04 0.05 0.08 0.14 0.10 0.06 0.04 0.03 0.04 0.18 0.28 0.16 0.07 0.09 0.14 0.14 0.10 0.09 0.08 0.08 0.06 0.05 0.07 0.11 0.16 0.21 0.20 0.20 0.19 0.19 0.24 0.35 0.46 0.54 0.70 0.90
0.00 0.01 0.01 0.02 0.03 0.04 0.04 0.04 0.05 0.07 0.16 0.17 0.11 0.10 0.10 0.16 0.29 0.29 0.19 0.11 0.09 0.11 0.17 0.20 0.15 0.13 0.13 0.11 0.07 0.05 0.05 0.08 0.10 0.10 0.13 0.16 0.16 0.20 0.28 0.39 0.55 0.69 0.86
0.00 0.01 0.02 0.03 0.04 0.04 0.05 0.04 0.05 0.05 0.07 0.07 0.09 0.11 0.09 0.17 0.22 0.17 0.15 0.12 0.11 0.13 0.19 0.22 0.14 0.10 0.10 0.10 0.08 0.06 0.04 0.04 0.05 0.06 0.09 0.14 0.19 0.23 0.26 0.32 0.45 0.64 0.84
0.00 0.01 0.02 0.03 0.04 0.04 0.04 0.05 0.05 0.04 0.03 0.03 0.04 0.07 0.10 0.12 0.13 0.13 0.13 0.11 0.12 0.15 0.21 0.16 0.09 0.08 0.08 0.07 0.08 0.07 0.05 0.03 0.03 0.04 0.06 0.10 0.15 0.19 0.23 0.27 0.36 0.51 0.72
0.01 0.02 0.03 0.04 0.04 0.04 0.05 0.05 0.06 0.06 0.05 0.03 0.02 0.04 0.07 0.10 0.11 0.11 0.13 0.16 0.17 0.15 0.17 0.13 0.09 0.07 0.07 0.08 0.08 0.07 0.06 0.04 0.03 0.03 0.04 0.05 0.09 0.15 0.19 0.23 0.31 0.45 0.61
0.01 0.02 0.03 0.04 0.04 0.05 0.05 0.05 0.06 0.06 0.06 0.05 0.04 0.04 0.07 0.09 0.10 0.11 0.15 0.21 0.16 0.12 0.11 0.09 0.08 0.08 0.07 0.08 0.08 0.07 0.07 0.05 0.04 0.03 0.03 0.04 0.06 0.09 0.15 0.19 0.26 0.36 0.49
0.01 0.02 0.03 0.04 0.05 0.05 0.06 0.07 0.08 0.08 0.08 0.07 0.07 0.08 0.16 0.19 0.19 0.16 0.17 0.18 0.14 0.10 0.08 0.08 0.07 0.07 0.07 0.08 0.07 0.07 0.06 0.05 0.04 0.03 0.03 0.03 0.04 0.06 0.10 0.15 0.21 0.28 0.38
0.01 0.02 0.04 0.05 0.05 0.06 0.08 0.09 0.10 0.11 0.11 0.10 0.08 0.10 0.21 0.25 0.20 0.15 0.15 0.15 0.13 0.11 0.10 0.09 0.08 0.08 0.07 0.07 0.07 0.06 0.06 0.05 0.04 0.03 0.03 0.03 0.03 0.04 0.07 0.11 0.16 0.22 0.31
0.01 0.02 0.04 0.05 0.07 0.08 0.09 0.10 0.12 0.13 0.13 0.13 0.11 0.10 0.14 0.20 0.20 0.18 0.15 0.12 0.11 0.11 0.11 0.11 0.09 0.09 0.10 0.12 0.12 0.10 0.08 0.06 0.05 0.04 0.04 0.03 0.03 0.04 0.05 0.07 0.11 0.16 0.24
0.02 0.04 0.06 0.07 0.08 0.10 0.12 0.12 0.13 0.15 0.15 0.15 0.15 0.14 0.14 0.16 0.16 0.17 0.16 0.14 0.13 0.12 0.11 0.12 0.11 0.09 0.09 0.10 0.11 0.14 0.13 0.10 0.08 0.06 0.06 0.04 0.04 0.04 0.04 0.06 0.09 0.13 0.19
0.04 0.07 0.09 0.11 0.12 0.13 0.15 0.16 0.16 0.17 0.17 0.17 0.16 0.15 0.14 0.14 0.14 0.14 0.14 0.14 0.14 0.13 0.13 0.14 0.12 0.11 0.12 0.12 0.11 0.12 0.13 0.11 0.10 0.08 0.07 0.07 0.06 0.05 0.05 0.06 0.08 0.11 0.16
0.06 0.09 0.12 0.14 0.17 0.19 0.21 0.21 0.20 0.19 0.19 0.18 0.17 0.16 0.15 0.15 0.14 0.12 0.11 0.11 0.12 0.11 0.12 0.14 0.15 0.15 0.15 0.15 0.15 0.15 0.14 0.11 0.10 0.10 0.09 0.07 0.06 0.05 0.06 0.06 0.07 0.09 0.13
0.08 0.11 0.14 0.18 0.22 0.24 0.27 0.27 0.24 0.21 0.22 0.20 0.19 0.18 0.17 0.16 0.14 0.12 0.11 0.12 0.12 0.11 0.11 0.12 0.14 0.17 0.17 0.17 0.17 0.16 0.15 0.12 0.11 0.10 0.08 0.06 0.05 0.04 0.05 0.07 0.07 0.08 0.10